{"data":{"norad_id":66301,"intl_designator":"2025-248J","name":"ICEYE-X66","alt_names":[],"object_type":"PAYLOAD","status":"ACTIVE","operator":null,"country":"UAE","launch_date":"2025-11-02","launch_site_code":"AFETR","launch_vehicle":null,"mission":null,"orbit_class":"UNKNOWN","rcs_meters":null,"size_class":null,"mass_kg":null,"dimensions":null,"purposes":[],"wikipedia_slug":null,"has_3d_model":false,"image_url":null,"decayed_at":null,"tle_current":{"epoch":"2026-09-20T22:43:32.067552Z","epoch_age_seconds":93098,"freshness":"FRESH","line1":"1 66301U 25248J   26263.94689893  .00001044  00000+0  79664-4 0  9996","line2":"2 66301  45.4020 348.8872 0005071 209.5688 150.4908 15.09497603 49974","mean_motion":15.09497603,"eccentricity":0.0005071,"inclination_deg":45.402,"raan_deg":348.8872,"arg_perigee_deg":209.5688,"mean_anomaly_deg":150.4908,"bstar":7.9664e-5,"rev_number":4997,"period_min":95.395977915972,"perigee_km":534.22705119079,"apogee_km":541.24112764968,"semimajor_km":6915.8710894202,"source":"CELESTRAK","updated_at":"2026-09-21T09:00:15.899538Z"}}}